Tracking 30970 objects as of 3-Jul-2025
HD Live streaming from Space Station
objects crossing your sky now

COSMOS 886 DEB

Track COSMOS 886 DEB now!
10-day predictions


NORAD ID: 9965
Int'l Code: 1976-126BF
Perigee: 925.9 km
Apogee: 2,330.6 km
Inclination: 65.8 °
Period: 118.7 minutes
Semi major axis: 7999 km
RCS: 0.145 m2 (medium)
Launch date: December 27, 1976
Source: Commonwealth of Independent States (former USSR) (CIS)
Launch site: TYURATAM MISSILE AND SPACE COMPLEX (TTMTR)

Note: This is SATELLITE DEBRIS
Your satellite tracking list
STARLINK-32625
Track 1 satellite(s)




NASA's NSSDC Master Catalog

Two Line Element Set (TLE):
1 09965U 76126BF  25183.50988980 -.00000368  00000-0 -99596-3 0  9997
2 09965  65.7968 272.8336 0878024  24.7367  62.5549 12.13479084125795
Source of the keplerian elements: AFSPC